Preview of NWS' New Version of Forecast
This preview is not operational and should not be used for support decisions.

Regional Weather Roundup (RWR)

Issued by National Weather Service (NWS)

                            
000
ASUS42 KTBW 231416
RWRFL 
FLORIDA REGIONAL WEATHER ROUNDUP
NATIONAL WEATHER SERVICE TAMPA BAY RUSKIN FL
1000 AM EDT SAT MAR 23 2019

NOTE: "FAIR" INDICATES FEW OR NO CLOUDS BELOW 12,000 FEET WITH NO
SIGNIFICANT WEATHER AND/OR OBSTRUCTIONS TO VISIBILITY.

FLZ001>010-012>015-112-114-115-231500-
PANHANDLE FLORIDA
  
CITY           SKY/WX    TMP DP  RH WIND       PRES   REMARKS
PENSACOLA      FAIR      60  43  53 NE6       30.25R                  
PENSACOLA NAS  FAIR      60  49  66 N5        30.25R                  
MILTON NAS     FAIR      57  43  59 VRB3      30.26R                  
CRESTVIEW      FAIR      57  40  52 CALM      30.27R                  
DUKE FIELD     FAIR      55  38  54 CALM      30.25R                  
VALPARAISO     FAIR      58  38  48 NE7       30.24R                  
MARY ESTHER    SUNNY     56  42  59 N7        30.24R                  
PANAMA CITY    FAIR      59  43  55 MISG      30.24R                  
TYNDALL AFB    FAIR      59  41  51 NE8       30.24R                  
APALACHICOLA   FAIR      60  43  53 NE8       30.23R                  

STATION/POSITION SKY/WX   TEMP    WIND        PRES    WAVE   SWELL
                          AIR SEA DIR/SP/G            HT/PER HT/PER
                          (F)     (DEG/KT/KT) (MB)    (FT/S) (FT/S)
30.1N   87.6W                                 1024.8R   1
29.2N   88.2W                      20/ 10/ 10 1024.5R   1
PANAMA CITY BEAC           57 65              1024.4R
TOWER C                    61      40/ 11/ 12 1023.9R

$$
FLZ011-016>038-118-127-128-134-139-239-231500-
NORTH FLORIDA
  
CITY           SKY/WX    TMP DP  RH WIND       PRES   REMARKS
MARIANNA       FAIR      56  43  61 CALM      30.24R                  
TALLAHASSEE    FAIR      57  41  55 CALM      30.24R                  
PERRY          FAIR      54  48  81 NE3       30.25R                  
LIVE OAK       SUNNY     55  41  58 CALM      30.23R                  
CROSS CITY     FAIR      59  45  60 N8        30.23R                  
LAKE CITY      FAIR      57  37  47 NE6       30.23R                  
GAINESVILLE    FAIR      64  40  41 NE8       30.24R                  
WILLISTON        N/A    N/A N/A N/A MISG        N/A                   
PALATKA        FAIR      59  46  63 N6        30.23R                  
MAYPORT NAS    FAIR      62  41  46 N6        30.22R                  
JACKSONVILLE   FAIR      60  38  43 N7        30.21R                  
JAX NAS        FAIR      60  37  42 N9        30.23R                  
JAX CECIL      SUNNY    N/A N/A N/A CALM      30.22R                  
FERNANDINA BEA FAIR      61  40  45 NW8       30.22R                  
ST AUGUSTINE   FAIR      61  45  55 N7        30.22R                  
PALM COAST     SUNNY     61  46  59 VRB3      30.21R                  

STATION/POSITION SKY/WX   TEMP    WIND        PRES    WAVE   SWELL
                          AIR SEA DIR/SP/G            HT/PER HT/PER
                          (F)     (DEG/KT/KT) (MB)    (FT/S) (FT/S)
SHELL POINT      NOT AVBL
KEATON BEACH               60      40/  6/  8 1024.1R
CEDAR KEY                  62      50/  7/  9 1023.5R
FERNANDINA                 60 62              1023.8R
30.7N   81.3W                 62                N/A     2/ 4
MAYPORT                    58 62              1023.1R
31.4N   80.9W              58 61   40/ 14/ 17 1022.5R   2/ 4
ST AUGUSTINE               58 63  350/  8/  9 1023.3R

$$
FLZ040-043>046-052-053-057-058-063-144-231500-
INTERIOR CENTRAL FLORIDA
  
CITY           SKY/WX    TMP DP  RH WIND       PRES   REMARKS
OCALA          FAIR      59  46  62 VRB6      30.23R                  
LEESBURG       FAIR      63  45  51 N6        30.23R                  
SANFORD        FAIR      62  46  55 N7        30.21R                  
ORLANDO EXEC   FAIR      65  42  43 NE12      30.21R                  
ORLANDO INTL   FAIR      65  42  43 N10       30.21R                  
KISSIMMEE      FAIR      64  45  49 NE6       30.23R                  
WINTER HAVEN   FAIR      63  50  62 NE9       30.23R                  
LAKELAND       SUNNY     61  52  72 CALM      30.23R                  
SEBRING        FAIR      61  51  70 N7        30.22R                  
OKEECHOBEE     FAIR      61  52  72 CALM      30.21R                  

$$
FLZ041-047-054-059-064-141-147-231500-
EAST CENTRAL FLORIDA
  
CITY           SKY/WX    TMP DP  RH WIND       PRES   REMARKS
ORMOND BEACH   SUNNY     59  50  72 CALM      30.21R                  
DAYTONA BEACH  FAIR      62  50  64 N3        30.21R                  
DELAND         FAIR      61  45  55 NE7       30.21R                  
NEW SMYRNA BEA SUNNY     59  48  67 N6        30.22R                  
JFK SPACE CTR  FAIR      64  53  68 N8        30.20R                  
TITUSVILLE     SUNNY     66  50  55 N14       30.22R                  
CAPE CANAVERAL FAIR      66  52  60 N10       30.19R                  
PATRICK AFB    FAIR      64  56  75 NW6       30.20R                  
MELBOURNE      FAIR      64  53  67 N6        30.21R                  
VERO BEACH     FAIR      66  55  67 N7        30.20R                  
FT PIERCE      FAIR      67  53  61 VRB7      30.20R                  
STUART         SUNNY     64  55  72 N6        30.21R                  

STATION/POSITION SKY/WX   TEMP    WIND        PRES    WAVE   SWELL
                          AIR SEA DIR/SP/G            HT/PER HT/PER
                          (F)     (DEG/KT/KT) (MB)    (FT/S) (FT/S)
28.5N   80.2W              64     340/ 12/ 14 1022.7R   2/11   2/11
28.9N   78.5W              71 74  330/  8/ 14 1022.3R   5/ 7   5/ 7
TRIDENT PIER               62 67              1023.8R
28.4N   80.5W                 67                N/A     1/10
27.5N   80.2W                 69                N/A     3/11   2/11

$$
FLZ050-056-061-142-242-148-248-149-249-151-251-155-255-
160-260-231500-
WEST CENTRAL FLORIDA
  
CITY           SKY/WX    TMP DP  RH WIND       PRES   REMARKS
CRYSTAL RIVER  FAIR      55  52  88 NE3       30.23R                  
INVERNESS      FAIR      55  52  88 NE6       30.23R FOG              
BROOKSVILLE    FAIR      65  47  52 N5        30.22R                  
CLEARWATER AIR FAIR      63  50  63 NE5       30.22R                  
ST PETE CLEARW FAIR      62  56  80 NE6       30.22R                  
TAMPA INTL     FAIR      63  50  62 VRB3      30.22R                  
TAMPA EXEC     FAIR      61  54  77 NE3       30.23R                  
PLANT CITY     FAIR      61  52  72 N6        30.24R                  
MACDILL AFB    FAIR      64  53  67 E6        30.22R                  
PETER O KNIGHT FAIR      63  55  77 NE7       30.22S                  
ST PETERSBURG  FAIR      64  56  75 NE8       30.21R                  
SARASOTA       FAIR      64  54  69 N7        30.20R                  
VENICE         FAIR      64  54  68 MISG      30.22R                  

STATION/POSITION SKY/WX   TEMP    WIND        PRES    WAVE   SWELL
                          AIR SEA DIR/SP/G            HT/PER HT/PER
                          (F)     (DEG/KT/KT) (MB)    (FT/S) (FT/S)
27.3N   84.2W                 72                N/A     2/ 5
CLEARWATER BEACH           62 67              1023.3R
MIDDLE TAMPA BAY           60                 1023.3R
VENICE                     62 71   10/  9/ 12 1022.9R

$$
FLZ066-069-070-075>078-162-262-165-265-231500-
SOUTHWEST FLORIDA AND KEYS
  
CITY           SKY/WX    TMP DP  RH WIND       PRES   REMARKS
PUNTA GORDA    FAIR      63  51  65 NE9       30.23R                  
FT MYERS       FAIR      63  48  58 NE9       30.21R                  
SOUTHWEST INTL FAIR      62  49  62 NE7       30.21R                  
NAPLES         FAIR      62  51  67 E8        30.21R                  
MARCO ISLAND   FAIR      61  50  67 NE8       30.22R                  
IMMOKALEE      FAIR      63  50  63 NE7       30.20R                  
MARATHON       FAIR      71  52  50 NE12      30.19R                  
KEY WEST NAS   PTSUNNY   72  54  53 E8        30.20R                  
KEY WEST INTL  PTSUNNY   71  55  56 E7        30.20R                  

STATION/POSITION SKY/WX   TEMP    WIND        PRES    WAVE   SWELL
                          AIR SEA DIR/SP/G            HT/PER HT/PER
                          (F)     (DEG/KT/KT) (MB)    (FT/S) (FT/S)
NAPLES                     61 69              1022.8R
26.0N   85.6W              69 79  350/  8/ 12 1022.6R   1/ 5   2/ 5
DRY TORTUGAS               70      40/  6/  8 1022.6R
SAND KEY                   68                 1022.4R
SOMBRERO KEY               67                 1021.7R
MOLASSES REEF              66 76   20/ 12/ 14   N/A

$$
FLZ067-068-071>074-168-172>174-231500-
SOUTHEAST FLORIDA 
  
CITY           SKY/WX    TMP DP  RH WIND       PRES   REMARKS
W PALM BEACH   FAIR      67  48  50 N5        30.20R                  
BOCA RATON     SUNNY     70  45  40 N6        30.20R                  
FT LAUDER-EXEC FAIR      67  44  43 CALM      30.20R                  
FT LAUDERDALE  FAIR      67  47  48 N6        30.20R                  
POMPANO BEACH  FAIR      68  44  42 NW6       30.20R                  
PEMBROKE PINES   N/A     67  47  48 N7        30.22R                  
OPA LOCKA      FAIR      68  49  50 N5        30.21R                  
MIAMI          FAIR      67  47  48 NE5       30.21R                  
WEST KENDALL   FAIR      67  50  54 NE8       30.20R                  
HOMESTEAD      FAIR      67  50  56 N7        30.19R                  

STATION/POSITION SKY/WX   TEMP    WIND        PRES    WAVE   SWELL
                          AIR SEA DIR/SP/G            HT/PER HT/PER
                          (F)     (DEG/KT/KT) (MB)    (FT/S) (FT/S)
VIRGINIA KEY               68 74              1021.7R
LAKE WORTH                 65 75              1023.4R
FOWEY ROCKS                68 77  350/ 12/ 14 1023.0R
SETTLEMENT POINT           71     110/  7/  8 1022.1R

$$